Wind_Speed
27 27 27 27 27 28 28 29 29 29 30 30 30 30 30 30 30 30 30 30 30 29 29 28 28 27 27 26 25 25 25 24 24 23 23 22 22 21 22 22 21 20 20 21 22 22 23 24 24 25 26 27 29 30 29 29 29 29 29 29 30 30 30 30 31 32 33 35 36 37 37 38 39 37 35 34 31 27 22 20 21 22 22 19 18 16 13 9
28 28 28 28 28 28 28 28 28 28 28 29 29 29 29 28 28 28 28 28 28 28 27 27 26 25 25 24 24 23 23 23 22 22 21 21 20 20 21 21 20 19 20 21 21 22 22 23 23 24 25 27 30 30 29 29 29 29 29 29 30 30 31 31 31 31 32 33 35 36 37 37 38 36 35 34 30 27 23 21 20 21 23 22 22 20 17 11
30 29 29 29 29 28 28 28 28 28 28 28 28 28 28 27 27 27 26 26 26 26 26 25 25 24 23 22 22 22 22 21 21 20 20 19 19 19 20 20 19 18 19 20 21 21 22 22 23 23 24 27 30 29 28 28 28 28 28 28 29 30 31 31 32 32 31 32 33 34 35 36 36 35 34 34 31 26 22 21 21 21 22 23 24 23 20 15
30 30 30 30 30 29 29 29 28 28 28 28 27 27 27 27 26 26 25 25 25 25 24 24 24 23 22 21 20 20 20 20 20 19 19 18 18 18 19 19 19 18 19 20 20 21 21 21 22 23 24 27 29 28 27 27 27 27 28 28 30 31 32 33 33 33 33 33 33 33 34 34 34 34 34 34 31 26 21 20 20 20 22 23 24 24 23 20
30 30 30 30 30 30 29 29 29 29 28 28 28 27 26 26 26 25 25 24 24 23 23 23 23 23 22 21 20 19 19 19 19 18 18 17 17 17 18 18 18 18 18 19 20 21 21 21 21 21 23 26 28 26 26 26 26 27 28 29 30 31 33 34 34 34 34 34 34 34 34 34 34 34 34 34 32 28 23 21 21 20 20 20 21 23 24 23
29 30 30 30 30 30 30 29 29 29 29 28 28 27 26 26 25 25 25 24 24 23 23 23 23 23 22 21 19 19 19 18 18 18 17 17 16 16 17 17 18 17 17 19 20 20 20 19 19 20 22 25 26 25 25 25 26 27 28 29 29 31 33 33 34 34 34 34 34 34 35 34 34 34 34 35 33 31 27 24 24 22 20 18 19 21 23 23
29 29 30 30 30 30 30 30 30 29 29 28 28 28 27 26 25 24 24 24 24 23 23 22 22 22 22 21 19 19 18 18 18 17 17 16 16 15 16 16 17 16 17 18 19 19 19 18 18 19 21 25 25 23 24 25 26 27 27 28 29 30 32 33 33 34 34 34 34 34 35 34 34 34 34 35 34 32 29 26 25 25 22 19 20 22 22 24
29 30 30 30 30 30 31 30 30 30 29 29 28 27 27 27 26 24 23 24 24 23 23 23 22 22 22 21 20 19 18 18 17 17 16 16 15 15 15 15 16 16 16 18 19 18 17 17 17 18 21 24 24 23 23 24 26 26 26 28 28 29 31 32 33 33 34 34 34 34 34 34 35 35 35 36 36 34 32 28 25 25 26 23 22 23 22 24
30 30 31 30 30 30 31 31 31 31 30 30 29 28 27 27 27 26 24 23 23 23 23 23 23 22 22 21 20 20 19 18 17 17 17 16 15 15 14 15 15 15 15 17 18 17 17 16 17 18 21 24 23 22 23 24 25 25 26 27 27 28 29 30 31 32 33 33 33 33 34 34 34 35 35 36 37 37 35 31 28 28 29 28 26 26 25 25
33 33 32 32 32 31 31 32 32 32 31 30 29 29 28 27 26 26 25 23 22 23 23 23 23 23 22 21 20 21 20 18 17 17 17 17 16 15 14 14 15 14 15 16 17 17 17 16 17 19 21 24 22 21 22 23 23 24 25 26 26 26 27 29 30 31 32 32 32 32 33 34 34 35 36 36 37 37 37 33 31 30 28 28 28 29 29 28
36 36 36 35 34 33 33 33 33 33 32 31 30 29 28 28 27 26 25 24 23 22 22 23 24 23 23 21 21 21 20 19 18 17 17 17 16 15 15 14 14 14 14 15 16 16 16 16 18 19 21 23 22 20 21 22 23 24 24 24 24 25 26 28 29 31 31 31 31 31 32 33 34 35 35 36 35 36 36 35 33 30 26 26 28 29 30 30
39 40 40 39 37 35 34 34 34 34 33 32 31 30 28 28 27 27 25 24 24 23 22 23 24 23 23 22 21 22 21 20 19 17 17 18 17 16 15 15 14 14 14 14 15 15 16 17 18 19 21 22 21 20 21 21 22 24 24 23 23 24 25 27 29 30 30 30 30 31 32 33 33 34 34 34 34 34 34 34 33 30 26 25 25 26 28 30
41 42 43 42 41 38 36 35 35 35 34 33 33 31 29 27 27 27 27 25 24 23 23 23 24 23 24 23 21 22 22 21 19 17 18 18 18 17 16 15 15 14 13 13 14 14 15 17 18 20 20 21 20 19 20 21 22 23 23 23 23 24 25 27 28 29 30 29 30 31 31 32 33 33 33 33 33 33 33 32 33 30 27 25 23 23 24 27
43 43 44 44 44 42 39 37 36 36 35 34 34 33 31 29 27 27 27 27 24 24 23 23 24 24 24 23 21 22 22 21 19 18 19 19 18 17 16 16 15 14 13 13 14 14 15 18 19 20 20 19 19 19 19 20 22 23 23 23 23 24 25 26 27 28 29 29 30 31 31 31 32 33 33 32 32 33 34 33 32 30 28 26 24 23 22 23
43 44 45 45 45 44 41 39 38 38 37 36 35 34 33 31 28 26 27 27 26 24 24 24 24 24 24 24 21 22 23 23 19 18 20 19 18 18 17 16 16 15 14 13 13 14 15 18 20 21 19 18 19 19 19 20 22 23 23 22 22 24 25 25 26 27 28 28 29 31 31 31 32 32 32 31 31 32 34 33 33 32 30 29 27 26 25 24
45 45 46 46 45 44 43 42 40 39 39 38 36 35 34 33 30 27 26 28 27 25 24 24 24 24 24 23 20 23 25 22 19 19 21 19 19 18 17 17 16 15 14 13 13 14 15 18 20 20 19 18 19 20 20 20 21 23 22 21 22 23 25 25 26 28 28 28 28 30 31 31 31 32 31 30 30 30 31 32 32 31 29 29 29 29 29 28
46 45 45 46 46 45 44 44 42 40 40 39 38 37 35 34 33 29 27 27 28 26 25 25 24 24 25 23 21 25 25 20 19 21 20 19 19 18 17 18 17 16 15 14 14 14 15 18 20 20 19 19 19 20 20 20 20 21 21 21 22 22 24 26 26 27 28 28 29 30 30 30 30 30 30 30 29 28 28 29 29 28 27 27 28 30 31 31
47 46 45 46 46 45 45 45 44 42 42 41 39 38 37 36 34 32 28 27 28 27 25 25 24 24 26 23 22 26 24 21 21 21 20 19 19 18 18 18 17 16 15 15 15 15 16 17 19 20 19 19 19 20 19 19 19 20 21 22 22 22 23 25 25 26 26 27 29 29 29 29 28 27 27 27 27 26 26 28 29 30 30 30 30 30 30 31
49 47 45 45 45 45 45 46 45 44 42 42 40 39 38 38 36 33 30 27 28 29 26 25 24 25 26 22 22 26 25 22 22 20 20 20 19 19 19 18 18 16 15 16 16 15 16 17 18 20 19 19 19 19 18 18 18 19 22 23 22 22 21 23 24 24 24 26 28 28 28 28 27 26 25 24 25 25 25 26 28 30 31 31 30 29 28 29
50 48 47 46 45 45 45 46 46 45 43 42 41 40 39 39 38 35 31 28 29 29 27 25 25 25 25 23 24 25 25 23 21 21 21 20 19 20 19 19 18 16 16 17 17 16 16 16 18 20 20 19 19 18 18 17 16 19 24 25 22 20 20 22 23 23 23 25 26 27 28 28 28 28 26 25 24 24 24 25 26 27 27 27 27 27 27 27
51 49 48 47 46 45 45 46 47 45 44 43 41 40 40 40 40 37 33 29 29 30 29 26 25 25 25 25 24 24 25 23 21 22 22 20 20 20 19 19 18 17 18 18 17 16 15 17 20 21 20 19 19 18 18 16 15 19 25 25 21 20 20 21 22 22 23 25 26 27 28 27 28 29 28 25 24 23 22 22 22 23 24 24 24 25 25 25
53 51 50 49 48 46 46 46 46 46 45 44 42 41 41 41 41 39 34 31 29 30 30 26 25 25 26 26 24 24 24 23 22 24 22 20 20 20 20 20 18 18 19 19 18 16 15 17 21 21 20 19 19 19 18 16 14 19 26 25 20 21 20 20 21 22 24 25 25 27 27 27 26 27 26 25 24 23 21 20 19 20 20 21 22 22 22 23
55 54 53 52 50 48 47 46 46 46 45 45 44 42 42 41 41 40 36 32 30 31 30 28 26 26 26 26 24 23 24 24 24 25 22 20 21 21 21 19 18 19 19 19 19 16 15 19 21 21 20 19 19 19 18 15 14 17 25 25 21 20 19 19 21 23 25 25 25 27 28 27 25 25 24 23 23 22 22 20 18 17 17 19 20 20 18 18
58 57 56 55 53 51 50 49 48 47 47 47 45 43 41 41 41 40 37 33 30 31 31 29 27 26 26 26 25 24 25 25 25 25 22 20 22 22 21 19 19 20 19 20 20 16 16 20 21 21 20 19 20 19 17 15 14 17 23 27 22 19 18 19 21 23 26 26 26 27 28 28 26 23 22 21 21 21 21 19 16 14 15 16 16 16 14 11
61 60 59 58 56 54 52 51 50 49 49 48 45 42 40 40 41 40 38 34 31 31 32 30 27 26 26 27 26 24 25 26 25 25 23 21 23 23 20 20 20 20 19 21 20 17 18 20 21 21 20 20 20 19 16 14 14 16 21 26 23 19 17 18 19 23 25 26 26 27 28 27 25 22 21 21 21 19 17 15 14 13 13 13 13 14 16 15
63 62 60 59 58 56 54 52 51 50 49 48 45 42 40 40 41 41 38 34 32 33 33 30 27 27 27 28 27 25 26 27 25 25 23 21 24 22 20 21 21 20 19 21 21 18 19 20 22 22 20 19 21 19 15 14 15 16 21 26 23 19 17 18 20 22 23 24 25 25 25 24 22 21 20 19 17 13 12 10 9 11 13 14 14 14 15 18
64 63 61 60 59 57 54 53 51 50 49 47 45 43 41 40 41 41 39 35 34 34 33 30 28 28 28 29 27 24 26 27 25 26 24 22 24 22 21 22 21 19 19 22 21 18 18 21 22 22 20 20 21 18 15 15 15 16 21 24 22 19 19 21 21 21 22 23 23 23 23 23 21 20 18 16 12 10 8 5 1 4 10 14 17 16 13 14
65 64 62 61 60 58 56 54 52 50 49 47 45 44 42 41 42 42 39 37 35 34 33 30 28 29 30 29 27 24 26 27 26 27 25 22 23 22 23 23 20 19 21 23 21 18 19 22 23 23 21 19 20 18 17 17 15 16 20 22 21 21 22 23 21 20 22 23 23 23 23 24 23 21 17 13 11 9 7 7 9 10 6 3 12 17 15 14
64 64 62 62 61 58 56 54 52 51 49 47 46 45 43 42 42 42 40 38 36 34 33 30 28 31 31 29 27 26 27 27 26 26 24 22 23 24 24 22 20 20 22 23 20 18 20 23 23 22 20 19 21 20 18 17 14 15 20 21 22 24 24 23 19 19 22 23 24 25 25 26 24 21 17 14 14 12 8 9 11 14 12 8 5 13 16 15
62 61 61 60 59 58 56 54 53 51 49 48 46 45 44 42 42 42 41 38 36 35 33 30 29 32 31 28 27 27 27 26 25 26 25 23 25 26 24 22 21 22 23 23 20 19 22 24 23 23 21 20 21 20 18 17 14 16 21 23 24 25 25 23 20 20 23 24 25 26 26 26 23 20 19 17 15 12 10 11 11 12 10 7 5 12 16 15
58 57 57 57 57 56 55 53 52 50 49 47 46 45 43 42 42 42 40 37 36 35 32 29 29 31 30 27 27 28 27 25 24 26 26 25 27 27 24 23 23 23 23 22 20 20 23 24 24 24 23 21 22 20 19 18 15 17 22 25 25 26 26 24 22 23 24 25 26 26 26 25 22 20 21 19 16 12 11 12 13 14 10 7 9 13 15 15
54 53 53 53 53 53 52 51 50 49 47 46 44 43 42 41 42 41 39 36 36 33 30 29 30 32 31 28 28 30 28 25 25 28 27 25 27 27 25 24 25 24 23 22 19 21 25 25 24 25 23 22 22 21 20 18 17 18 22 25 26 26 26 24 24 25 25 26 27 27 26 26 24 22 22 21 18 14 13 12 13 14 13 12 12 13 14 15
52 50 50 50 49 49 48 48 47 46 45 43 42 41 41 42 42 40 38 36 34 31 30 31 33 33 33 30 29 30 28 25 26 29 28 26 27 27 26 26 26 25 23 21 20 23 26 26 25 24 22 21 21 21 19 18 18 19 22 26 26 25 25 24 24 26 26 27 28 28 28 27 25 25 24 23 22 19 18 17 16 16 16 16 15 14 14 14
50 49 49 47 47 46 44 44 44 43 42 41 40 40 41 41 40 38 36 34 33 31 31 34 34 33 33 30 29 29 26 25 26 28 28 26 27 28 28 27 26 25 23 21 22 25 27 26 24 21 18 20 21 21 20 20 20 19 22 26 26 25 25 25 26 28 27 28 29 30 30 29 27 27 26 26 25 23 23 23 22 19 17 16 15 15 14 14
45 47 47 46 45 43 42 41 40 40 39 39 39 40 41 40 38 36 35 34 33 31 33 35 34 33 32 30 29 28 27 26 27 28 28 26 27 29 29 27 27 25 24 24 25 27 27 24 20 18 19 21 22 21 21 21 20 20 24 27 27 26 26 26 28 29 28 28 29 30 30 30 29 28 28 28 26 23 22 23 23 21 17 15 16 16 15 15
41 43 44 45 44 42 40 39 38 38 38 38 39 40 39 38 37 37 37 37 35 34 35 37 35 33 31 31 31 30 28 27 27 28 28 28 29 30 29 29 28 27 25 25 27 27 24 21 20 21 23 23 22 21 22 21 21 23 26 27 26 25 25 27 30 30 29 28 29 30 30 30 29 28 28 29 26 23 21 21 20 19 17 14 15 16 15 15
38 39 41 42 43 41 39 38 37 37 37 38 39 39 38 39 40 40 40 39 37 35 35 36 35 33 31 33 33 30 29 28 28 29 29 28 30 31 30 29 28 28 26 26 28 26 22 23 25 26 27 26 24 23 23 23 23 24 25 26 26 25 26 28 31 30 29 28 29 30 31 30 29 28 29 30 27 24 23 23 20 19 17 14 14 15 14 14
35 36 37 38 40 40 39 38 37 37 38 39 38 38 39 41 40 38 38 36 34 33 34 37 36 33 32 33 32 31 30 29 29 31 30 30 31 32 30 28 28 28 26 26 28 25 23 27 28 26 27 25 23 24 23 24 24 24 25 26 27 26 26 28 29 29 28 27 28 29 31 30 29 29 30 30 28 27 27 26 23 21 19 15 13 15 15 15
34 34 34 35 37 38 39 38 38 38 39 38 37 38 40 40 37 36 36 33 33 35 37 38 37 34 34 34 33 33 31 28 30 32 31 30 31 30 29 29 30 29 27 28 28 25 26 29 27 24 24 24 24 24 24 24 25 25 26 27 27 27 26 27 27 27 27 27 27 29 30 30 29 29 30 29 28 28 27 26 24 22 19 15 15 16 16 16
32 31 31 33 35 37 38 38 38 38 38 37 37 39 39 38 38 38 38 36 36 37 36 36 35 35 35 35 34 33 29 28 32 33 30 30 30 31 31 31 31 30 28 29 28 27 29 28 26 25 24 25 25 24 23 25 26 26 27 27 27 27 25 22 21 23 26 28 28 29 30 31 30 29 29 29 29 28 26 24 22 20 18 16 17 19 18 17
31 29 29 31 32 33 35 36 37 38 37 37 38 39 39 39 39 39 39 39 38 37 36 37 38 37 36 35 34 32 30 30 32 33 30 30 31 31 31 31 31 29 28 28 28 29 30 27 26 26 25 26 26 24 24 26 27 27 27 25 26 25 20 15 14 18 24 28 30 31 31 31 31 29 29 28 28 28 27 24 21 20 19 18 18 20 21 19
30 27 27 28 30 32 34 35 36 36 34 34 35 36 36 36 37 37 37 37 37 37 38 40 40 39 38 37 35 33 31 30 32 33 31 30 31 31 31 31 31 29 29 29 29 31 30 26 26 26 25 26 26 26 26 25 25 26 24 22 25 24 17 13 13 15 21 26 29 31 31 31 31 30 29 28 29 29 27 24 21 20 22 21 21 22 22 22
28 26 26 27 30 32 33 34 34 32 31 32 33 32 32 33 34 34 35 35 37 38 39 41 41 41 40 38 36 34 33 33 33 32 31 31 31 31 31 31 31 30 30 30 31 31 28 26 26 27 27 28 28 28 26 24 25 23 20 22 26 23 18 16 16 17 21 25 28 31 32 32 32 33 32 30 30 29 27 25 24 23 24 25 24 25 26 25
28 26 26 27 30 31 31 31 30 30 31 33 34 34 33 33 34 34 35 36 37 38 39 41 42 41 39 37 35 35 35 35 34 32 32 32 31 30 32 33 31 31 31 32 32 30 27 27 28 28 29 29 29 27 25 25 25 24 24 27 27 22 20 22 22 22 24 27 29 32 34 34 35 36 35 32 32 32 30 28 26 25 27 28 27 28 29 28
28 27 27 28 29 29 28 28 28 29 33 36 37 37 37 36 35 35 37 39 39 40 40 42 41 39 37 36 35 35 34 34 34 33 32 31 31 31 32 33 32 33 34 33 31 29 29 29 29 29 29 28 26 24 23 24 27 27 28 29 27 24 26 29 28 27 27 30 31 33 35 37 39 39 37 33 33 34 33 30 28 27 29 29 29 30 30 30
29 28 27 28 28 27 27 28 28 31 35 38 38 39 40 40 38 38 40 41 41 41 42 42 40 38 38 36 35 34 34 34 35 33 31 32 32 31 32 33 33 33 33 32 30 30 30 29 28 27 27 24 22 22 23 26 29 30 30 29 27 26 27 27 26 25 27 31 32 33 35 39 41 41 38 36 35 36 35 33 30 29 30 30 30 31 31 30
31 30 29 28 27 27 27 28 28 32 36 37 39 40 42 42 42 42 41 40 41 41 42 41 39 38 37 34 33 32 32 33 34 32 31 31 30 30 31 33 32 31 31 32 31 30 28 27 26 25 24 24 25 26 27 29 30 30 29 28 28 27 25 23 23 25 28 31 32 33 36 39 41 41 40 38 37 37 37 36 33 32 32 32 32 32 33 32
32 32 31 28 28 28 28 27 27 32 35 36 38 40 41 43 44 44 42 40 41 41 42 41 39 37 36 35 34 34 32 33 33 31 30 30 31 31 30 31 32 32 32 32 29 27 27 27 27 26 26 27 27 27 29 29 30 30 29 28 29 28 25 23 25 28 30 31 32 34 36 38 39 41 40 39 38 39 39 38 37 35 34 34 34 34 35 36
34 34 32 29 30 30 29 28 28 32 35 36 37 39 41 43 42 41 42 42 42 42 42 40 37 36 37 38 37 35 33 32 32 31 32 32 31 29 28 31 33 33 32 30 28 28 29 29 28 27 27 26 25 26 29 30 31 31 30 29 29 28 25 26 29 31 31 31 31 33 36 37 38 39 40 40 39 40 40 40 39 39 38 38 36 35 36 38
36 36 34 31 31 32 31 30 30 32 35 36 37 39 41 41 40 41 43 44 44 43 42 39 37 37 38 38 36 33 30 30 31 32 32 30 28 29 30 33 34 34 32 30 30 30 30 28 26 24 25 26 27 29 32 33 32 32 30 29 29 29 28 29 31 32 31 30 30 33 35 36 36 37 40 41 40 40 40 41 41 41 41 41 40 39 39 39
38 37 36 33 32 34 34 33 33 33 33 35 38 41 41 40 40 42 44 44 44 44 41 38 38 39 39 37 34 31 31 32 33 32 29 28 30 31 32 33 33 32 31 30 30 30 30 28 26 26 27 29 31 33 34 34 33 32 31 30 30 31 30 29 31 32 32 31 31 33 35 36 36 37 38 40 40 40 40 41 41 42 42 43 42 41 41 42
40 38 38 35 34 37 36 35 35 34 32 33 37 41 41 40 40 42 44 44 43 43 40 38 39 39 37 34 31 31 34 35 33 31 29 30 32 32 31 31 31 31 32 31 31 31 31 29 28 28 29 30 32 33 33 32 31 31 31 31 31 32 30 28 29 31 32 32 33 34 35 36 36 36 37 39 39 40 41 41 41 41 41 41 41 41 42 44
Wind_Direction
285 284 283 282 281 280 279 278 278 278 278 278 278 278 279 279 279 280 281 282 282 283 283 284 284 284 284 284 285 284 284 283 282 281 280 278 276 273 270 267 264 262 258 255 252 248 246 245 244 243 243 243 241 239 237 236 237 237 238 239 239 241 241 240 239 238 237 237 237 238 238 238 238 241 242 244 247 250 255 258 253 245 244 247 248 248 255 256
287 286 285 284 283 283 281 280 279 279 278 278 279 279 279 279 280 280 281 281 282 283 283 283 283 283 283 283 283 283 282 282 281 280 279 278 276 273 269 266 263 260 257 254 251 248 245 243 242 241 242 243 242 240 238 236 236 236 236 237 238 239 239 238 238 239 238 238 238 239 240 239 238 239 239 238 242 246 254 262 254 244 241 240 248 248 244 246
289 288 287 286 285 285 284 283 282 281 280 279 278 279 279 280 280 280 281 281 282 283 283 283 282 282 282 282 282 282 281 280 280 279 279 277 275 272 269 265 262 258 255 252 250 247 244 242 240 239 238 241 243 242 241 239 238 237 237 237 238 239 239 238 237 237 237 237 238 239 239 239 238 237 236 236 241 244 253 263 252 242 241 237 245 248 243 239
289 289 288 288 287 286 285 285 284 283 283 282 280 279 279 279 280 280 281 281 282 283 283 282 282 281 280 280 280 280 280 279 278 278 278 276 275 273 269 265 261 257 254 252 249 247 244 241 238 237 237 239 242 242 241 241 239 238 237 236 237 239 240 239 238 237 236 237 238 239 239 239 237 235 233 234 237 239 246 256 247 241 244 241 242 244 238 229
290 289 289 289 288 287 286 286 285 285 284 284 283 282 280 280 280 281 281 281 281 282 283 283 281 280 278 278 278 278 278 277 277 277 276 275 275 273 270 266 260 256 254 252 250 247 244 241 239 238 239 241 241 240 240 240 240 238 236 236 236 238 240 240 240 239 237 237 238 238 238 238 237 235 232 230 230 231 239 246 241 239 243 240 237 239 234 226
291 290 290 290 289 289 288 287 287 286 285 285 285 284 283 282 281 281 281 281 281 281 282 282 282 280 278 277 276 276 276 275 274 274 274 274 274 273 271 267 261 256 254 253 250 248 245 243 240 238 239 242 241 239 238 238 237 236 235 235 235 236 239 240 240 240 239 237 237 237 237 237 237 235 232 230 229 228 237 246 240 235 239 237 230 232 228 222
290 290 290 290 290 290 290 289 288 287 286 285 285 285 285 284 282 282 281 281 281 280 280 281 281 280 278 276 275 275 274 274 272 272 272 271 272 272 272 269 263 257 255 253 251 249 247 244 241 239 240 241 240 237 236 237 236 235 234 234 234 235 237 239 240 240 240 239 238 237 237 237 236 235 232 231 230 229 237 246 240 230 229 232 227 226 224 217
289 289 289 289 289 290 290 289 289 288 288 287 285 285 285 284 284 282 281 281 280 280 279 279 279 280 278 276 274 274 273 272 271 269 269 268 269 271 272 270 265 259 255 254 252 250 247 244 241 239 242 242 239 236 234 235 236 235 235 234 234 234 236 238 240 240 240 240 239 239 238 237 236 235 233 230 229 230 237 242 239 233 229 229 227 224 224 218
288 288 289 289 289 289 289 289 288 288 288 288 287 286 284 284 284 283 282 280 280 279 278 277 277 278 278 277 274 272 271 270 269 268 267 266 266 268 271 270 267 261 256 255 253 250 246 242 241 239 242 244 240 238 236 235 236 235 235 235 234 234 236 237 239 240 240 239 239 239 239 238 237 236 234 232 230 232 236 238 240 240 237 234 231 225 222 217
286 286 286 287 287 287 287 287 287 287 286 286 286 286 286 284 283 283 282 281 280 278 277 276 275 275 275 276 274 271 269 268 266 265 265 264 263 264 268 269 268 264 258 255 254 252 246 240 239 238 241 244 240 237 239 239 238 237 235 235 235 234 236 237 238 238 238 238 238 238 238 238 237 236 235 234 233 233 234 237 240 242 242 238 233 227 222 218
283 284 284 284 284 285 285 286 286 285 285 285 284 283 284 285 284 282 282 281 280 278 276 275 274 272 272 273 273 271 268 267 264 263 263 261 260 261 263 267 267 265 260 257 254 252 249 243 239 237 239 242 241 237 238 239 240 239 236 236 235 234 236 237 238 239 238 237 236 236 237 237 237 236 236 236 235 235 236 237 237 237 238 236 233 230 227 224
281 282 282 282 282 282 283 284 285 285 285 285 284 282 281 282 283 283 282 280 280 279 276 274 272 271 270 269 270 270 268 265 263 262 261 260 258 258 259 263 265 264 262 259 255 252 251 247 242 239 239 241 241 239 239 239 238 239 238 236 235 234 234 236 237 239 239 237 236 235 235 236 236 235 235 235 235 235 235 235 233 233 234 232 231 231 230 228
281 281 281 282 282 282 283 283 284 284 284 285 285 284 282 280 281 282 282 280 279 278 276 273 271 269 267 266 267 268 267 265 262 261 261 259 257 256 257 260 263 263 262 260 256 251 249 248 245 242 240 240 241 238 239 240 239 239 238 236 235 233 233 234 236 238 238 237 237 236 234 234 236 235 234 232 232 231 231 232 231 233 236 234 231 231 230 228
280 281 281 281 282 282 282 283 283 284 284 284 284 285 284 282 280 280 281 280 278 277 275 273 270 268 267 265 263 265 267 264 262 260 260 258 256 255 255 256 259 262 262 260 256 251 247 247 246 243 240 240 241 239 237 239 240 240 238 236 234 233 233 233 235 237 238 237 238 238 235 233 234 235 234 231 230 228 228 230 231 234 239 239 237 235 232 230
279 279 279 279 280 280 281 281 282 283 283 284 284 284 284 284 282 280 279 279 278 276 275 273 270 267 265 263 262 264 264 262 260 259 258 257 256 255 253 254 255 259 260 259 257 252 247 247 246 245 241 240 241 240 236 236 240 240 238 236 235 235 233 233 233 235 237 236 236 239 237 234 232 232 233 232 229 227 229 232 234 238 242 244 243 243 241 241
278 278 277 277 277 278 279 279 280 281 282 283 284 284 284 284 283 281 279 278 278 276 274 272 269 267 264 262 262 260 259 259 260 258 256 256 256 255 253 253 253 255 258 258 257 253 249 247 247 245 242 239 240 240 237 236 238 242 242 239 237 237 237 234 231 233 234 233 233 236 238 236 233 230 229 230 229 229 232 237 239 240 243 246 247 248 248 249
278 277 276 275 275 275 276 277 278 279 280 281 282 283 284 284 283 282 279 277 277 275 272 270 268 266 263 259 258 257 256 258 258 255 255 255 255 255 254 252 251 252 255 257 256 254 250 249 248 247 243 239 239 239 239 239 240 243 245 244 239 237 239 237 232 231 232 230 229 231 234 235 235 232 229 228 229 232 238 241 242 241 242 246 250 251 252 254
277 277 276 274 273 273 274 275 276 278 278 279 281 282 284 284 284 282 279 278 277 274 271 269 267 265 261 257 256 257 257 255 254 254 255 254 253 254 253 251 250 249 252 255 256 255 253 251 250 249 245 241 240 240 241 242 244 246 245 244 240 235 236 239 237 233 231 229 227 227 228 230 231 231 230 231 233 238 243 245 245 246 248 251 253 254 255 256
276 276 275 273 272 272 272 273 274 276 276 277 279 281 282 283 283 282 280 278 276 273 270 268 266 263 260 256 254 255 255 253 252 253 253 252 252 253 252 251 249 247 249 253 254 255 255 253 252 251 248 244 241 240 239 240 244 248 248 244 241 237 236 239 240 236 233 231 228 225 224 225 226 226 229 234 240 245 247 246 249 251 254 254 254 254 256 258
275 275 274 273 272 272 271 271 273 274 274 275 277 279 281 281 282 281 280 277 274 272 269 266 264 262 259 255 252 253 253 252 252 252 251 250 250 250 250 250 248 246 248 251 252 253 255 256 254 251 249 246 244 241 239 237 238 244 249 247 244 242 239 239 241 240 237 234 231 226 222 222 223 223 227 233 241 247 249 250 254 256 257 256 254 254 257 259
274 274 273 273 272 272 271 271 271 272 272 273 275 278 279 279 280 280 279 276 273 271 268 265 263 261 258 255 252 252 251 250 250 251 250 248 248 249 249 248 247 247 247 249 249 250 253 256 256 253 248 246 245 243 240 234 230 237 246 249 246 243 241 241 243 242 239 235 231 228 225 222 222 224 228 232 239 246 250 254 257 259 259 257 255 254 256 258
273 273 273 273 273 272 271 270 270 270 271 271 273 276 277 277 278 278 277 275 272 269 267 264 261 260 257 254 250 250 250 248 246 248 247 246 247 247 248 247 246 246 246 247 248 248 251 255 256 255 252 247 244 243 241 235 226 234 247 251 247 245 243 243 244 242 239 234 228 226 225 222 223 226 229 233 240 244 248 254 257 257 256 254 253 255 261 264
273 273 273 273 272 271 270 269 269 269 270 271 273 275 275 275 275 276 276 274 270 267 265 262 258 256 255 253 250 249 249 246 244 245 245 244 246 246 246 246 245 245 245 247 246 244 249 253 255 256 255 252 248 244 241 235 223 230 248 253 247 246 245 242 242 240 239 235 227 223 222 221 223 227 231 235 241 246 248 250 251 256 258 257 256 261 269 272
272 273 273 273 272 271 269 268 268 269 269 270 272 273 273 273 273 275 275 272 268 264 262 258 256 255 254 252 249 246 246 244 242 244 242 241 244 244 244 244 244 244 244 247 245 242 246 250 253 255 255 253 251 247 242 234 221 223 244 255 252 246 243 240 238 235 235 234 229 223 221 222 225 229 235 238 241 243 245 245 252 269 275 270 265 263 261 257
272 272 272 272 271 270 269 267 267 268 269 269 271 271 270 270 271 272 272 271 267 262 259 256 254 253 252 250 246 243 244 242 240 241 240 239 243 243 241 242 242 241 242 246 245 241 244 249 252 253 253 253 252 251 246 236 223 217 235 251 253 247 242 239 236 232 230 229 228 224 222 224 227 230 233 235 236 239 244 251 263 280 289 288 284 273 260 250
270 270 271 271 270 269 268 267 266 266 267 268 269 268 267 268 269 270 270 268 264 259 256 254 251 250 248 247 243 241 243 241 239 241 238 236 241 240 239 241 240 239 241 245 243 240 243 248 252 252 252 252 252 250 246 239 229 220 230 243 248 245 238 234 232 230 228 224 223 222 220 219 222 226 227 228 232 239 249 261 283 303 310 310 304 294 280 270
268 268 269 269 269 268 267 266 265 265 266 266 266 266 266 266 267 267 267 265 260 255 252 250 248 247 246 245 242 240 243 241 238 239 236 234 239 239 238 239 237 238 240 243 240 238 243 247 249 251 250 250 252 251 245 236 231 228 234 242 245 240 233 231 229 226 223 218 216 216 213 210 214 219 224 227 232 239 244 242 286 324 319 317 311 310 308 298
267 267 267 267 267 266 266 265 264 264 264 265 265 265 265 264 264 264 263 261 256 251 250 248 246 246 245 243 241 239 240 240 237 237 235 234 239 239 237 237 235 237 240 240 238 235 241 245 247 249 251 252 254 252 244 234 227 230 239 243 241 237 232 231 228 222 219 214 210 211 211 211 212 214 220 221 221 226 224 202 176 174 179 280 298 305 317 319
266 266 265 265 265 265 264 264 263 263 263 263 263 263 263 262 261 261 260 257 253 249 247 245 242 243 242 241 240 238 238 238 237 238 236 233 237 237 236 235 233 235 238 237 234 231 237 243 246 249 249 249 251 248 242 233 224 227 238 240 236 236 235 235 230 219 217 212 207 210 213 215 215 212 211 202 204 217 214 205 196 186 175 166 237 291 311 322
265 265 265 264 264 263 263 263 263 262 262 262 262 261 260 259 258 257 255 253 249 245 243 241 240 242 242 240 240 239 238 238 237 238 235 231 234 236 234 234 232 233 236 235 231 230 237 241 244 247 245 243 246 247 243 235 221 219 233 235 231 232 234 234 228 217 216 211 206 211 215 218 218 212 207 196 198 209 199 202 209 201 196 188 234 287 304 315
265 265 264 263 263 263 262 262 262 261 261 260 260 259 257 256 253 252 251 249 246 243 241 241 241 243 242 240 240 240 238 237 237 238 234 228 232 234 232 232 232 231 233 233 229 231 238 238 240 243 242 241 242 241 238 233 220 214 225 229 228 229 232 232 224 215 214 211 209 213 216 218 218 212 207 200 199 196 191 207 214 206 216 243 264 286 299 305
265 264 264 263 262 262 261 261 260 260 259 258 257 255 253 251 249 248 247 245 243 241 239 237 238 240 239 234 234 236 235 234 235 235 232 227 231 233 231 230 231 231 231 230 228 233 237 236 237 240 241 243 242 239 234 230 222 215 219 226 226 227 232 233 225 218 215 213 214 216 217 218 216 212 209 203 199 194 194 207 208 211 237 260 266 280 291 295
264 263 263 262 261 261 260 260 259 258 257 255 253 251 248 246 245 244 244 242 240 238 235 234 233 235 236 233 231 233 234 233 234 235 232 228 230 232 230 230 231 230 228 226 227 233 236 235 235 237 240 244 246 242 236 229 225 218 217 223 225 227 233 233 226 222 218 216 217 217 217 218 216 213 212 207 201 195 197 207 212 223 246 261 268 276 281 288
262 261 260 260 260 259 259 258 257 255 253 250 248 246 244 243 242 241 240 238 236 233 232 233 231 232 234 234 232 233 232 232 234 236 233 229 230 231 229 229 230 229 226 225 227 231 234 234 234 238 242 245 246 244 237 229 225 221 219 221 220 222 228 229 225 223 221 218 218 218 218 219 217 214 213 211 207 201 200 210 219 228 242 253 261 267 273 284
262 260 258 258 258 257 256 255 254 252 249 246 243 241 240 239 239 238 236 234 232 229 230 233 232 230 232 233 233 231 230 231 232 235 234 230 229 230 229 227 228 228 225 225 228 230 232 235 237 240 239 239 242 243 239 233 227 222 221 222 219 217 220 224 224 224 223 221 220 219 219 220 219 216 214 212 209 206 206 213 221 227 231 240 253 260 269 279
263 260 257 255 255 254 253 252 250 248 245 241 239 237 237 237 235 233 231 229 226 223 225 229 230 228 228 230 230 228 228 228 229 232 233 230 229 229 228 226 226 226 225 225 229 230 230 234 234 234 233 230 231 235 235 232 228 224 223 224 223 220 218 219 222 224 223 222 221 219 219 222 221 217 213 212 209 208 211 216 224 227 226 235 254 262 269 278
264 261 257 254 252 252 251 249 248 245 242 238 236 235 233 232 230 227 226 224 222 221 224 228 229 227 226 229 229 226 226 227 228 230 230 229 229 227 226 225 224 226 225 225 229 228 227 231 230 229 231 227 223 226 227 227 228 227 227 227 225 222 220 219 221 223 222 222 221 220 220 222 222 216 210 210 209 208 214 220 225 229 229 235 254 265 269 277
264 261 257 254 251 249 247 246 244 241 239 236 233 231 230 230 228 227 226 225 222 221 223 226 227 225 225 228 229 227 225 225 229 229 227 228 229 227 225 224 225 226 224 226 229 226 225 229 229 228 234 235 230 227 225 224 226 228 228 228 226 224 222 221 222 223 223 222 222 222 222 223 224 217 210 210 210 210 217 223 226 230 232 234 250 263 269 277
263 260 257 253 249 245 243 241 240 238 236 233 231 230 230 229 227 226 225 225 223 223 223 224 225 223 223 225 227 227 223 224 230 230 226 227 229 229 226 224 224 224 222 225 226 224 225 229 230 228 233 239 238 234 229 225 224 226 228 228 227 226 225 224 224 223 223 225 225 224 224 224 226 221 213 211 212 214 220 226 227 229 234 239 251 259 264 274
261 258 254 250 246 243 240 238 237 236 233 230 228 228 228 227 224 222 220 219 219 221 223 225 226 224 223 224 226 227 224 223 230 230 227 226 226 226 225 224 223 222 222 225 225 225 227 228 229 228 227 232 236 235 234 231 226 225 228 227 228 229 229 228 226 221 221 224 226 226 226 227 228 225 219 216 217 220 225 229 231 234 238 243 252 256 258 264
259 255 251 248 245 242 239 237 236 235 232 229 227 226 225 224 222 220 219 217 216 217 218 222 224 223 223 223 224 225 223 223 228 229 228 227 225 224 223 224 224 222 223 225 226 227 228 227 227 228 226 229 234 233 232 233 230 229 230 229 230 234 238 239 233 220 218 223 226 227 227 229 230 228 223 221 222 226 231 233 237 245 247 247 253 258 258 261
256 252 247 245 242 237 234 233 233 233 232 231 230 228 226 225 223 222 221 221 220 218 217 219 221 221 221 221 221 221 221 222 225 227 227 227 227 224 221 223 223 221 222 224 225 227 227 226 227 230 228 228 231 232 231 232 234 234 235 235 235 236 238 241 235 220 217 223 229 231 230 230 230 229 226 224 226 229 234 237 240 249 254 254 257 261 261 261
252 247 243 241 238 234 232 230 230 229 229 229 228 227 227 228 227 224 223 223 223 223 221 221 221 221 220 220 219 219 219 220 221 224 225 226 227 225 223 222 221 221 223 224 225 226 226 225 226 228 228 227 228 230 228 228 231 232 233 235 235 233 229 229 227 219 216 222 228 233 232 230 229 229 228 227 228 230 234 239 242 248 254 257 259 261 261 261
247 242 239 238 236 233 230 229 228 226 223 221 219 217 218 220 221 221 221 223 224 226 226 225 224 223 222 221 220 219 220 221 220 220 222 224 224 225 224 222 219 220 222 224 225 226 225 225 225 226 228 229 230 232 230 226 226 224 225 229 228 224 222 223 221 216 215 220 225 229 230 229 229 229 229 229 230 230 233 239 243 247 252 255 258 260 261 263
243 238 236 235 233 230 227 224 222 220 218 216 214 211 211 211 213 215 217 219 221 223 226 228 228 226 224 221 222 222 221 222 220 217 219 222 222 223 225 223 220 219 222 223 224 226 225 225 225 226 229 230 231 235 235 231 227 222 223 228 225 218 217 219 218 214 213 218 224 226 227 229 230 230 230 230 230 231 233 236 242 247 250 254 258 261 261 263
240 235 234 233 230 226 222 219 216 217 217 214 211 210 209 207 206 210 214 216 218 220 223 226 227 227 225 222 221 222 221 222 223 219 218 221 222 222 224 224 222 221 224 224 223 225 225 226 227 228 231 232 230 232 233 232 230 226 225 228 229 225 223 222 221 218 215 219 224 226 227 229 231 233 232 231 231 233 234 236 242 247 249 252 257 261 262 263
238 233 231 230 227 222 218 216 215 217 218 214 211 210 210 207 204 206 210 214 218 220 222 224 224 226 227 225 223 225 225 227 229 225 221 221 223 222 223 225 224 223 226 226 224 226 228 228 228 228 229 228 224 224 226 229 231 233 231 229 228 228 227 227 227 224 220 220 223 226 228 229 232 235 235 235 235 236 237 238 242 247 248 250 254 258 260 261
235 232 228 226 222 217 213 212 215 218 217 214 212 211 211 211 208 205 205 209 214 219 222 224 223 222 224 225 222 221 223 228 232 231 227 224 224 223 223 225 225 223 224 226 224 225 228 229 228 226 225 226 226 227 230 230 230 232 233 231 229 227 222 221 225 225 224 223 222 225 229 231 233 236 238 240 240 241 242 242 244 246 248 251 254 258 260 261
232 230 227 222 217 212 208 208 213 217 215 211 211 212 212 212 211 207 206 207 211 215 220 222 221 219 220 222 221 219 219 224 230 232 230 227 225 224 222 224 225 223 222 224 223 222 225 226 225 225 226 227 227 228 231 232 230 229 230 229 230 229 222 217 221 225 226 226 223 224 228 231 233 236 239 242 244 245 247 248 249 250 251 251 254 259 261 262
230 228 225 220 213 209 206 207 213 217 213 208 207 209 210 211 210 209 209 209 210 213 217 219 219 218 218 220 222 220 220 224 228 231 232 231 228 224 222 222 225 225 222 221 221 222 225 226 225 225 226 226 224 224 227 229 230 230 231 229 229 229 224 218 220 223 226 226 225 225 228 232 234 236 238 241 243 245 247 250 253 255 254 253 254 258 261 262
228 226 223 218 211 206 205 208 215 218 214 208 206 207 207 206 206 208 210 210 210 212 214 216 218 218 217 218 220 220 222 225 227 228 230 231 229 225 223 223 224 226 224 222 222 223 224 223 222 221 221 223 224 226 229 230 230 229 229 229 228 229 228 223 221 223 225 224 224 225 228 232 235 235 236 239 241 244 247 250 253 254 255 256 258 261 263 264
226 224 221 217 210 205 205 208 215 218 214 208 208 208 206 202 203 206 209 210 211 212 212 213 216 217 217 217 217 219 221 223 225 226 227 230 230 227 226 225 224 224 223 220 220 223 223 219 218 220 223 225 229 231 233 234 233 231 230 230 230 232 232 229 226 225 226 226 227 228 229 233 236 237 237 238 241 244 247 250 252 254 255 257 260 262 264 264
Height
10983 10983 10982 10982 10982 10982 10982 10981 10981 10981 10981 10981 10981 10981 10981 10981 10981 10981 10981 10981 10980 10980 10980 10979 10979 10978 10977 10976 10976 10975 10974 10973 10972 10971 10970 10970 10969 10969 10968 10968 10968 10969 10970 10970 10970 10970 10971 10971 10972 10973 10973 10973 10972 10973 10976 10978 10980 10982 10983 10984 10984 10984 10985 10987 10987 10988 10990 10991 10992 10994 10996 10997 10999 11000 11001 11002 11003 11005 11007 11009 11011 11011 11011 11011 11009 11007 11007 11010
10980 10980 10979 10979 10979 10979 10979 10978 10978 10978 10978 10978 10978 10978 10978 10978 10978 10978 10978 10978 10977 10977 10977 10976 10975 10975 10974 10973 10973 10972 10971 10970 10969 10969 10968 10968 10967 10966 10966 10965 10966 10967 10967 10967 10967 10968 10968 10969 10969 10971 10971 10969 10968 10970 10973 10975 10977 10979 10981 10982 10982 10982 10982 10983 10984 10985 10987 10988 10989 10991 10992 10994 10996 10997 10998 11000 11001 11003 11004 11004 11005 11006 11008 11009 11009 11007 11008 11010
10976 10976 10976 10976 10976 10976 10976 10975 10975 10975 10975 10975 10975 10975 10975 10975 10974 10975 10975 10975 10974 10974 10974 10973 10972 10972 10971 10971 10970 10969 10968 10968 10967 10966 10966 10966 10965 10964 10963 10963 10964 10965 10964 10964 10964 10965 10965 10966 10967 10968 10968 10965 10965 10968 10971 10973 10975 10976 10978 10980 10980 10980 10979 10980 10981 10982 10984 10985 10986 10988 10989 10991 10993 10994 10995 10997 10999 11001 11001 11002 11002 11003 11005 11007 11008 11007 11008 11010
10973 10973 10973 10973 10972 10972 10972 10972 10972 10972 10972 10972 10972 10972 10972 10972 10972 10972 10972 10972 10971 10971 10971 10970 10969 10969 10968 10968 10968 10967 10966 10965 10965 10964 10964 10963 10963 10962 10961 10961 10961 10962 10962 10962 10962 10962 10963 10963 10965 10965 10964 10962 10963 10966 10969 10970 10972 10974 10976 10976 10977 10977 10976 10976 10977 10979 10981 10982 10983 10984 10986 10987 10989 10991 10993 10994 10996 10998 11000 11001 11001 11001 11003 11005 11006 11005 11006 11009
10970 10970 10969 10969 10969 10969 10969 10969 10969 10969 10969 10969 10969 10969 10969 10969 10969 10969 10969 10969 10968 10968 10968 10967 10967 10966 10965 10965 10965 10964 10964 10963 10963 10962 10962 10962 10961 10960 10959 10959 10959 10960 10960 10959 10959 10960 10960 10961 10963 10963 10963 10961 10961 10964 10966 10968 10970 10971 10972 10973 10973 10973 10973 10973 10974 10976 10977 10979 10980 10981 10982 10984 10986 10988 10990 10991 10993 10995 10997 10998 10999 11000 11001 11004 11004 11002 11003 11007
10967 10966 10966 10966 10966 10965 10966 10966 10965 10965 10966 10965 10965 10965 10966 10966 10966 10966 10966 10966 10966 10965 10965 10964 10964 10963 10963 10963 10963 10962 10962 10961 10960 10960 10960 10960 10959 10958 10957 10957 10957 10958 10958 10957 10957 10957 10958 10960 10961 10962 10960 10958 10959 10962 10964 10965 10966 10967 10969 10970 10970 10970 10970 10970 10972 10972 10974 10975 10977 10978 10979 10981 10983 10985 10987 10989 10991 10992 10994 10995 10997 10998 10999 11001 11000 10998 11001 11006
10964 10963 10963 10963 10963 10962 10962 10962 10962 10962 10962 10962 10962 10962 10962 10963 10963 10963 10963 10963 10963 10963 10962 10962 10961 10961 10960 10960 10960 10960 10959 10959 10958 10958 10958 10957 10957 10957 10956 10955 10955 10956 10956 10955 10954 10955 10956 10958 10959 10959 10957 10955 10957 10960 10961 10961 10962 10964 10966 10967 10968 10968 10967 10968 10969 10969 10971 10973 10974 10975 10977 10978 10980 10982 10984 10986 10988 10989 10991 10992 10993 10995 10997 10998 10996 10995 10999 11003
10961 10961 10960 10960 10960 10959 10959 10959 10959 10959 10959 10959 10959 10959 10959 10959 10959 10960 10960 10960 10960 10960 10959 10959 10958 10958 10957 10958 10958 10957 10957 10957 10956 10956 10956 10955 10955 10955 10954 10953 10953 10954 10954 10953 10952 10953 10955 10956 10957 10957 10954 10952 10954 10957 10958 10958 10958 10961 10962 10963 10965 10966 10966 10966 10966 10966 10968 10970 10972 10973 10974 10975 10977 10979 10981 10983 10985 10986 10988 10989 10990 10991 10994 10995 10995 10995 10997 11000
10958 10958 10957 10957 10957 10957 10956 10956 10956 10955 10956 10956 10956 10956 10956 10956 10956 10956 10957 10957 10957 10957 10957 10956 10956 10955 10955 10955 10955 10955 10954 10954 10954 10954 10954 10953 10953 10953 10952 10952 10951 10952 10952 10951 10951 10951 10952 10954 10954 10954 10952 10950 10952 10954 10955 10956 10956 10959 10960 10961 10963 10963 10964 10964 10964 10964 10965 10967 10969 10970 10971 10972 10974 10976 10978 10979 10981 10983 10985 10987 10987 10988 10990 10992 10993 10994 10996 10998
10955 10955 10955 10954 10954 10954 10953 10953 10952 10952 10952 10953 10953 10953 10953 10953 10953 10953 10954 10954 10954 10954 10954 10953 10953 10952 10952 10952 10953 10952 10952 10952 10952 10952 10952 10951 10951 10951 10951 10950 10950 10950 10950 10949 10949 10949 10950 10952 10951 10951 10950 10948 10950 10953 10953 10954 10955 10956 10957 10959 10961 10962 10962 10962 10962 10961 10962 10965 10967 10968 10968 10969 10971 10972 10974 10976 10978 10980 10982 10984 10985 10985 10987 10988 10990 10991 10994 10996
10952 10952 10951 10951 10951 10951 10950 10950 10949 10949 10949 10949 10950 10950 10950 10950 10950 10950 10950 10951 10951 10951 10951 10950 10950 10950 10949 10950 10950 10949 10950 10950 10950 10950 10950 10949 10949 10949 10949 10948 10948 10948 10948 10948 10947 10947 10948 10949 10949 10948 10947 10946 10948 10951 10952 10952 10953 10953 10954 10957 10959 10960 10960 10959 10959 10958 10959 10962 10964 10965 10966 10967 10968 10969 10971 10973 10975 10978 10979 10981 10982 10983 10984 10985 10987 10988 10990 10992
10948 10948 10948 10947 10948 10948 10947 10947 10946 10946 10945 10946 10946 10946 10947 10947 10947 10947 10947 10947 10948 10948 10948 10947 10947 10947 10947 10947 10947 10947 10947 10947 10948 10948 10948 10947 10947 10947 10947 10947 10946 10946 10946 10946 10946 10946 10946 10946 10946 10946 10945 10945 10947 10949 10950 10950 10950 10950 10952 10954 10956 10957 10957 10957 10956 10956 10957 10959 10960 10962 10963 10964 10965 10967 10969 10970 10973 10974 10976 10977 10979 10980 10982 10983 10984 10985 10986 10988
10944 10944 10944 10943 10944 10944 10944 10944 10943 10942 10942 10942 10942 10943 10943 10944 10944 10944 10944 10944 10944 10945 10944 10944 10944 10944 10944 10944 10944 10944 10944 10945 10945 10946 10945 10945 10945 10945 10945 10945 10944 10944 10945 10945 10944 10945 10944 10943 10943 10943 10943 10944 10945 10947 10948 10948 10948 10948 10950 10952 10953 10954 10954 10954 10954 10954 10955 10956 10957 10958 10960 10962 10962 10964 10965 10967 10969 10971 10973 10974 10976 10977 10979 10980 10982 10983 10984 10985
10940 10940 10939 10939 10939 10940 10940 10940 10940 10939 10938 10939 10939 10939 10940 10940 10941 10941 10941 10941 10941 10941 10941 10941 10941 10941 10941 10941 10942 10942 10942 10942 10943 10944 10943 10943 10943 10943 10943 10943 10943 10943 10943 10943 10943 10943 10943 10941 10940 10940 10942 10943 10943 10945 10946 10946 10945 10945 10947 10949 10950 10950 10951 10952 10952 10952 10953 10954 10954 10955 10957 10959 10960 10961 10963 10964 10966 10968 10970 10971 10973 10975 10976 10978 10979 10981 10981 10982
10936 10935 10935 10935 10935 10935 10935 10936 10936 10935 10935 10935 10935 10936 10936 10937 10937 10938 10938 10937 10938 10938 10938 10938 10938 10938 10938 10938 10939 10939 10939 10939 10941 10941 10941 10940 10941 10941 10941 10941 10941 10941 10941 10941 10941 10941 10941 10939 10938 10938 10940 10942 10941 10942 10944 10943 10942 10942 10944 10946 10947 10948 10948 10949 10950 10950 10951 10953 10953 10952 10953 10956 10958 10959 10960 10961 10963 10965 10967 10969 10970 10972 10973 10975 10977 10978 10979 10980
10932 10931 10931 10931 10931 10931 10931 10931 10932 10932 10931 10931 10932 10932 10932 10933 10933 10934 10934 10934 10935 10935 10935 10935 10935 10935 10935 10935 10937 10936 10935 10937 10939 10939 10938 10938 10939 10939 10939 10939 10939 10939 10939 10939 10939 10939 10939 10937 10936 10937 10939 10940 10940 10940 10941 10941 10940 10940 10942 10944 10945 10945 10945 10946 10947 10947 10948 10951 10951 10950 10950 10952 10955 10957 10958 10959 10960 10963 10965 10966 10968 10969 10971 10972 10974 10975 10976 10977
10927 10926 10926 10926 10926 10927 10927 10926 10927 10928 10927 10927 10927 10928 10929 10929 10930 10930 10931 10931 10931 10931 10932 10931 10932 10932 10931 10932 10934 10932 10932 10935 10936 10936 10936 10936 10937 10937 10937 10937 10937 10937 10937 10937 10937 10937 10936 10935 10935 10935 10937 10937 10938 10938 10939 10939 10939 10940 10941 10942 10943 10943 10943 10943 10944 10945 10946 10949 10949 10948 10948 10949 10952 10954 10956 10957 10959 10961 10963 10964 10965 10966 10968 10969 10971 10972 10973 10974
10921 10921 10921 10921 10921 10923 10923 10922 10922 10923 10923 10922 10923 10924 10925 10925 10926 10926 10927 10928 10928 10928 10928 10928 10929 10928 10928 10930 10931 10929 10930 10932 10933 10933 10934 10934 10934 10935 10934 10934 10935 10935 10935 10935 10934 10934 10934 10934 10933 10933 10934 10935 10936 10936 10938 10938 10938 10938 10938 10939 10940 10941 10941 10941 10942 10942 10944 10946 10947 10947 10948 10949 10950 10952 10954 10955 10957 10959 10961 10962 10963 10964 10965 10967 10968 10969 10970 10970
10915 10916 10915 10915 10916 10918 10918 10917 10918 10919 10918 10918 10919 10920 10921 10921 10922 10922 10923 10924 10924 10924 10925 10925 10925 10925 10925 10927 10928 10926 10927 10929 10930 10931 10932 10932 10932 10932 10932 10932 10932 10933 10933 10933 10932 10932 10932 10932 10931 10931 10932 10933 10933 10935 10936 10937 10937 10935 10934 10935 10936 10938 10939 10939 10939 10940 10942 10944 10944 10946 10947 10948 10949 10951 10952 10954 10956 10957 10959 10960 10961 10962 10962 10964 10965 10966 10966 10967
10909 10910 10910 10910 10911 10912 10913 10912 10913 10914 10914 10914 10915 10916 10917 10918 10918 10918 10919 10921 10920 10920 10921 10922 10922 10921 10922 10923 10924 10923 10925 10926 10928 10929 10929 10930 10930 10930 10930 10930 10930 10931 10931 10930 10930 10930 10930 10930 10929 10929 10930 10930 10931 10933 10934 10936 10936 10934 10930 10931 10934 10936 10937 10936 10937 10939 10940 10941 10942 10944 10945 10947 10949 10950 10952 10954 10955 10956 10957 10958 10959 10959 10960 10960 10961 10962 10963 10963
10903 10904 10904 10904 10905 10907 10907 10907 10907 10908 10909 10909 10910 10912 10913 10914 10914 10914 10915 10916 10916 10916 10917 10918 10918 10918 10918 10919 10920 10921 10922 10923 10925 10925 10926 10927 10928 10927 10928 10927 10928 10929 10928 10928 10928 10928 10929 10928 10926 10926 10927 10928 10929 10931 10932 10934 10935 10932 10927 10928 10932 10933 10934 10935 10936 10937 10938 10938 10939 10941 10942 10945 10947 10949 10951 10953 10954 10955 10955 10956 10956 10956 10957 10957 10958 10958 10959 10959
10897 10897 10898 10898 10899 10901 10901 10902 10902 10903 10904 10904 10906 10908 10908 10909 10910 10909 10910 10912 10912 10912 10913 10914 10915 10915 10915 10915 10917 10918 10919 10920 10922 10922 10923 10925 10925 10925 10925 10925 10926 10926 10926 10925 10926 10926 10927 10926 10924 10923 10925 10926 10927 10928 10930 10932 10934 10931 10925 10926 10930 10931 10933 10935 10935 10935 10934 10935 10937 10938 10939 10943 10945 10947 10950 10952 10953 10954 10954 10954 10954 10954 10954 10954 10954 10955 10956 10955
10890 10891 10891 10892 10893 10894 10895 10896 10896 10897 10898 10899 10900 10903 10903 10905 10906 10905 10906 10907 10908 10908 10909 10910 10911 10911 10911 10912 10914 10915 10915 10917 10918 10918 10920 10922 10922 10922 10922 10923 10924 10923 10923 10923 10923 10925 10925 10923 10922 10921 10922 10924 10925 10926 10928 10930 10933 10931 10924 10923 10927 10929 10931 10933 10932 10932 10932 10933 10935 10936 10937 10940 10943 10946 10949 10951 10952 10952 10953 10953 10952 10952 10952 10952 10952 10953 10953 10952
10884 10884 10885 10885 10886 10887 10888 10889 10890 10891 10892 10893 10895 10898 10899 10900 10901 10901 10901 10902 10904 10904 10904 10906 10907 10907 10908 10909 10910 10911 10912 10913 10914 10915 10917 10920 10920 10919 10920 10921 10921 10921 10921 10921 10921 10923 10923 10921 10920 10920 10920 10921 10922 10923 10925 10928 10930 10930 10924 10921 10924 10928 10929 10930 10930 10930 10930 10931 10933 10935 10936 10938 10941 10945 10947 10949 10949 10951 10951 10951 10951 10951 10950 10950 10950 10950 10950 10949
10876 10877 10878 10878 10879 10880 10881 10883 10884 10885 10886 10887 10890 10892 10893 10895 10896 10896 10896 10897 10899 10899 10900 10902 10903 10904 10904 10905 10906 10908 10908 10909 10911 10912 10914 10917 10916 10917 10918 10918 10918 10918 10919 10918 10918 10920 10920 10918 10918 10918 10918 10919 10919 10921 10923 10926 10927 10928 10924 10920 10922 10925 10926 10927 10928 10928 10928 10930 10931 10933 10935 10937 10940 10943 10944 10945 10947 10949 10949 10950 10950 10949 10948 10948 10948 10948 10947 10947
10869 10869 10870 10871 10871 10873 10875 10876 10878 10879 10880 10881 10884 10886 10888 10890 10891 10891 10891 10893 10894 10894 10895 10898 10900 10900 10900 10900 10902 10905 10905 10905 10908 10909 10911 10914 10913 10914 10916 10915 10915 10916 10917 10916 10916 10917 10917 10916 10915 10915 10916 10917 10917 10919 10921 10923 10924 10925 10922 10919 10919 10922 10924 10924 10924 10925 10927 10929 10930 10932 10935 10937 10939 10940 10940 10943 10945 10947 10947 10947 10947 10948 10947 10946 10946 10946 10946 10945
10860 10861 10863 10864 10864 10866 10868 10869 10871 10872 10873 10876 10878 10880 10882 10885 10885 10885 10886 10887 10887 10888 10890 10894 10896 10895 10895 10896 10898 10902 10901 10902 10905 10905 10907 10910 10910 10912 10913 10912 10913 10914 10914 10913 10913 10915 10915 10914 10913 10913 10914 10914 10915 10917 10919 10920 10922 10922 10920 10919 10919 10920 10921 10920 10921 10924 10926 10927 10928 10931 10934 10936 10937 10938 10940 10943 10945 10945 10945 10944 10943 10943 10944 10945 10944 10944 10944 10943
10852 10852 10855 10856 10856 10858 10861 10862 10864 10865 10867 10870 10872 10874 10876 10879 10879 10880 10881 10881 10881 10882 10886 10890 10892 10891 10891 10892 10895 10898 10898 10898 10901 10902 10904 10908 10908 10909 10909 10909 10911 10912 10911 10910 10911 10913 10912 10911 10911 10911 10912 10913 10913 10914 10916 10918 10920 10921 10919 10918 10919 10918 10918 10918 10919 10922 10924 10925 10927 10930 10932 10934 10935 10938 10941 10943 10942 10942 10942 10941 10938 10936 10937 10941 10944 10943 10942 10942
10842 10844 10846 10847 10848 10851 10853 10855 10857 10859 10861 10864 10866 10868 10870 10872 10873 10874 10875 10875 10875 10878 10882 10885 10887 10886 10886 10889 10892 10894 10894 10895 10898 10899 10902 10905 10905 10905 10906 10907 10909 10909 10908 10908 10909 10911 10910 10908 10909 10909 10910 10911 10911 10911 10913 10915 10919 10921 10918 10917 10917 10917 10916 10917 10918 10921 10923 10925 10927 10929 10931 10932 10935 10939 10941 10940 10940 10940 10941 10941 10940 10937 10935 10937 10940 10941 10940 10940
10833 10835 10837 10839 10840 10843 10845 10848 10850 10852 10855 10857 10859 10861 10863 10865 10867 10867 10868 10869 10870 10873 10877 10881 10882 10881 10883 10887 10889 10890 10891 10892 10895 10896 10898 10901 10901 10901 10903 10904 10905 10906 10905 10905 10907 10908 10907 10906 10907 10906 10907 10909 10908 10909 10910 10913 10918 10920 10917 10915 10915 10915 10915 10916 10918 10921 10923 10924 10927 10928 10930 10931 10934 10938 10939 10938 10938 10939 10939 10940 10941 10940 10939 10937 10937 10939 10939 10939
10825 10827 10829 10831 10833 10835 10838 10840 10842 10845 10847 10850 10852 10854 10856 10858 10859 10860 10861 10863 10864 10868 10873 10877 10878 10877 10880 10884 10885 10885 10887 10890 10892 10892 10894 10897 10897 10898 10900 10901 10902 10903 10903 10903 10905 10906 10904 10904 10904 10904 10905 10906 10906 10907 10908 10911 10916 10918 10915 10913 10913 10914 10914 10915 10917 10919 10921 10924 10926 10928 10929 10931 10933 10936 10937 10937 10937 10938 10938 10938 10938 10939 10939 10938 10937 10937 10938 10938
10817 10819 10821 10823 10825 10827 10830 10833 10835 10838 10840 10843 10845 10847 10849 10851 10851 10853 10855 10857 10860 10864 10870 10873 10873 10872 10875 10879 10880 10880 10883 10886 10888 10887 10889 10893 10894 10894 10897 10898 10899 10899 10900 10901 10903 10902 10901 10901 10902 10902 10903 10903 10904 10905 10907 10909 10913 10915 10914 10912 10912 10913 10913 10914 10916 10918 10921 10923 10925 10926 10928 10929 10931 10933 10933 10934 10936 10936 10936 10936 10937 10938 10938 10938 10937 10937 10937 10937
10809 10812 10813 10815 10818 10820 10823 10825 10828 10831 10833 10836 10838 10840 10842 10842 10844 10848 10850 10853 10856 10861 10865 10866 10867 10868 10869 10873 10876 10877 10880 10883 10883 10883 10886 10889 10890 10891 10893 10894 10895 10896 10898 10899 10900 10899 10898 10898 10899 10900 10901 10902 10902 10903 10905 10907 10909 10911 10911 10910 10911 10912 10912 10914 10917 10918 10920 10922 10923 10925 10926 10927 10929 10930 10930 10932 10933 10934 10934 10935 10935 10935 10936 10936 10936 10936 10936 10936
10802 10804 10806 10808 10811 10813 10817 10819 10821 10824 10826 10829 10831 10833 10834 10836 10839 10843 10846 10849 10852 10856 10858 10859 10861 10864 10865 10869 10872 10874 10877 10879 10879 10880 10882 10886 10887 10887 10889 10891 10892 10894 10895 10896 10896 10895 10894 10895 10897 10899 10901 10901 10900 10901 10903 10904 10906 10908 10908 10907 10908 10910 10912 10914 10916 10917 10918 10920 10921 10923 10924 10925 10927 10928 10929 10929 10931 10931 10933 10933 10933 10933 10934 10935 10935 10936 10935 10935
10795 10797 10799 10801 10804 10807 10810 10812 10815 10817 10820 10822 10824 10825 10827 10830 10835 10838 10841 10844 10847 10851 10853 10853 10857 10860 10862 10865 10868 10870 10873 10875 10876 10876 10878 10881 10883 10883 10885 10887 10889 10890 10892 10893 10892 10892 10892 10894 10897 10898 10898 10898 10898 10899 10900 10902 10903 10905 10904 10904 10906 10908 10910 10912 10914 10914 10916 10918 10920 10922 10923 10923 10924 10926 10927 10927 10928 10930 10931 10932 10932 10932 10933 10934 10935 10935 10934 10934
10789 10790 10792 10795 10798 10801 10803 10806 10809 10811 10813 10815 10816 10818 10822 10826 10830 10832 10834 10837 10840 10844 10846 10848 10851 10855 10859 10860 10862 10865 10868 10870 10872 10873 10874 10876 10878 10879 10881 10883 10885 10887 10888 10889 10889 10889 10892 10893 10894 10894 10893 10894 10895 10896 10897 10899 10901 10901 10901 10902 10904 10907 10909 10910 10911 10911 10914 10916 10918 10920 10921 10921 10922 10924 10925 10926 10927 10928 10930 10931 10931 10931 10932 10933 10933 10933 10933 10933
10783 10785 10786 10788 10791 10794 10798 10800 10803 10805 10807 10808 10810 10814 10818 10819 10821 10824 10827 10830 10835 10839 10842 10844 10847 10851 10854 10855 10857 10861 10864 10866 10867 10868 10870 10872 10873 10875 10877 10880 10882 10883 10885 10886 10886 10887 10890 10890 10889 10889 10888 10890 10892 10893 10895 10896 10897 10898 10900 10901 10902 10904 10907 10908 10908 10909 10912 10914 10916 10917 10918 10919 10920 10922 10924 10924 10925 10927 10928 10929 10930 10929 10930 10931 10931 10930 10931 10931
10778 10779 10781 10783 10785 10788 10791 10794 10796 10798 10799 10801 10805 10809 10811 10812 10816 10821 10824 10828 10834 10837 10838 10839 10842 10846 10849 10851 10853 10856 10859 10862 10862 10863 10866 10868 10868 10871 10874 10877 10878 10879 10882 10883 10883 10885 10887 10885 10886 10887 10887 10889 10891 10892 10892 10894 10895 10896 10897 10898 10900 10902 10904 10905 10906 10908 10910 10912 10913 10915 10916 10917 10918 10920 10922 10923 10924 10925 10926 10927 10928 10927 10928 10929 10929 10928 10929 10929
10773 10774 10776 10777 10779 10781 10784 10787 10789 10791 10793 10797 10801 10803 10805 10808 10814 10818 10822 10827 10831 10831 10832 10834 10837 10841 10844 10845 10848 10850 10855 10858 10857 10858 10862 10864 10865 10867 10870 10872 10874 10876 10878 10879 10880 10882 10882 10882 10884 10886 10887 10888 10889 10890 10891 10891 10893 10894 10894 10896 10898 10899 10901 10903 10905 10907 10909 10911 10912 10913 10914 10915 10916 10917 10920 10922 10922 10923 10924 10925 10925 10925 10926 10927 10927 10927 10927 10927
10768 10770 10771 10772 10773 10775 10778 10781 10783 10785 10788 10792 10795 10797 10800 10805 10809 10812 10816 10820 10822 10825 10829 10832 10834 10837 10839 10841 10843 10846 10851 10854 10852 10853 10858 10860 10861 10863 10865 10867 10869 10872 10874 10875 10877 10878 10878 10880 10882 10883 10885 10885 10885 10887 10889 10889 10890 10891 10892 10894 10896 10897 10899 10902 10904 10907 10908 10909 10910 10911 10912 10913 10914 10915 10918 10919 10920 10920 10921 10922 10922 10922 10923 10924 10924 10924 10924 10925
10764 10766 10767 10767 10769 10771 10773 10776 10778 10780 10784 10788 10790 10792 10796 10800 10804 10808 10811 10814 10818 10822 10826 10827 10829 10831 10834 10836 10839 10841 10845 10848 10848 10850 10853 10855 10857 10859 10862 10864 10866 10869 10871 10872 10874 10874 10875 10877 10879 10880 10882 10883 10883 10884 10886 10887 10888 10889 10890 10892 10895 10896 10899 10902 10905 10907 10907 10907 10907 10908 10910 10911 10912 10914 10915 10916 10917 10917 10918 10919 10919 10919 10919 10920 10921 10920 10921 10921
10760 10762 10763 10763 10764 10765 10767 10770 10773 10777 10782 10786 10788 10792 10796 10800 10803 10806 10810 10814 10817 10819 10821 10821 10823 10826 10828 10830 10833 10837 10840 10843 10843 10846 10849 10851 10852 10855 10858 10860 10862 10865 10866 10868 10869 10870 10871 10875 10877 10878 10879 10880 10880 10881 10882 10885 10887 10888 10890 10892 10893 10895 10898 10902 10904 10906 10906 10906 10906 10907 10909 10910 10911 10912 10912 10914 10914 10915 10916 10917 10917 10917 10916 10917 10918 10917 10917 10918
10756 10758 10759 10759 10759 10761 10763 10766 10770 10775 10780 10783 10786 10791 10796 10799 10802 10806 10809 10812 10814 10816 10817 10818 10819 10821 10824 10826 10829 10832 10835 10836 10839 10842 10845 10846 10849 10851 10854 10856 10858 10861 10862 10864 10865 10866 10869 10872 10873 10874 10875 10876 10877 10878 10880 10882 10884 10886 10888 10889 10889 10892 10897 10900 10901 10903 10904 10905 10905 10905 10907 10908 10909 10909 10910 10911 10913 10913 10913 10914 10915 10915 10914 10914 10916 10915 10914 10915
10752 10754 10755 10755 10755 10757 10761 10764 10769 10773 10775 10777 10780 10784 10788 10792 10797 10802 10805 10807 10809 10812 10813 10814 10815 10818 10821 10824 10827 10828 10829 10831 10835 10838 10840 10842 10845 10847 10849 10851 10855 10857 10858 10859 10861 10864 10867 10868 10869 10871 10872 10873 10874 10876 10877 10879 10880 10883 10884 10883 10885 10890 10893 10895 10896 10899 10901 10902 10902 10903 10904 10905 10906 10905 10906 10910 10911 10911 10911 10912 10912 10912 10912 10912 10913 10912 10911 10912
10748 10750 10750 10751 10752 10755 10759 10762 10765 10767 10767 10769 10773 10777 10780 10785 10791 10795 10798 10800 10803 10806 10808 10810 10813 10817 10819 10822 10825 10826 10827 10828 10831 10834 10837 10839 10841 10843 10845 10847 10850 10852 10853 10855 10858 10861 10863 10864 10866 10868 10869 10870 10873 10874 10876 10877 10877 10878 10879 10879 10882 10886 10888 10888 10891 10894 10897 10898 10898 10899 10901 10901 10901 10901 10904 10908 10908 10908 10909 10910 10910 10910 10910 10910 10909 10908 10908 10909
10744 10746 10746 10747 10750 10753 10755 10757 10760 10760 10761 10764 10768 10771 10774 10779 10784 10788 10791 10794 10797 10800 10803 10806 10810 10814 10816 10820 10822 10824 10826 10826 10827 10831 10834 10835 10837 10840 10842 10844 10846 10849 10850 10853 10855 10857 10858 10861 10863 10865 10866 10869 10871 10872 10873 10873 10873 10874 10875 10877 10879 10882 10884 10886 10889 10892 10894 10895 10896 10897 10898 10897 10897 10899 10902 10905 10905 10905 10906 10907 10908 10908 10909 10908 10907 10906 10905 10906
10740 10741 10742 10744 10747 10750 10752 10754 10756 10756 10757 10761 10764 10767 10770 10774 10777 10781 10786 10790 10794 10796 10799 10802 10807 10811 10815 10819 10822 10824 10827 10827 10827 10829 10831 10833 10835 10837 10839 10840 10843 10846 10848 10849 10852 10854 10856 10859 10861 10862 10864 10866 10867 10868 10868 10869 10870 10872 10873 10874 10876 10879 10882 10886 10889 10891 10892 10893 10894 10895 10895 10894 10894 10896 10898 10901 10903 10903 10903 10904 10905 10906 10907 10907 10906 10904 10903 10903
10735 10736 10738 10741 10744 10746 10749 10751 10752 10752 10754 10758 10761 10764 10767 10770 10773 10777 10781 10785 10789 10792 10795 10799 10804 10808 10811 10815 10817 10819 10824 10826 10827 10828 10830 10831 10832 10834 10836 10838 10839 10842 10843 10845 10850 10852 10854 10855 10857 10859 10861 10862 10864 10865 10866 10866 10867 10868 10869 10871 10872 10874 10879 10884 10886 10887 10889 10890 10891 10892 10892 10892 10892 10893 10895 10897 10899 10900 10900 10901 10902 10903 10904 10904 10903 10902 10901 10900
10731 10732 10734 10738 10740 10742 10745 10747 10747 10747 10749 10753 10758 10760 10763 10767 10772 10776 10778 10780 10783 10787 10791 10795 10801 10803 10805 10807 10810 10815 10821 10824 10826 10827 10827 10829 10830 10833 10834 10834 10834 10837 10840 10843 10847 10849 10849 10850 10853 10856 10858 10859 10861 10862 10862 10863 10863 10864 10865 10868 10869 10872 10876 10880 10882 10883 10886 10887 10889 10889 10889 10889 10890 10891 10892 10893 10894 10895 10895 10896 10898 10899 10899 10899 10899 10899 10898 10897
10726 10727 10730 10733 10736 10739 10742 10743 10743 10743 10745 10749 10753 10755 10759 10764 10771 10774 10774 10776 10780 10783 10787 10793 10796 10797 10799 10803 10808 10815 10819 10821 10822 10824 10826 10829 10830 10830 10830 10830 10831 10833 10837 10840 10842 10844 10845 10847 10850 10853 10855 10857 10858 10858 10858 10859 10860 10862 10863 10865 10867 10869 10872 10876 10878 10880 10883 10885 10886 10887 10886 10887 10888 10889 10889 10889 10890 10890 10890 10891 10892 10893 10893 10893 10894 10895 10894 10893
10721 10723 10725 10729 10732 10735 10737 10738 10739 10740 10743 10747 10749 10750 10755 10761 10767 10769 10771 10774 10777 10780 10785 10789 10791 10792 10795 10800 10807 10812 10815 10815 10817 10820 10824 10827 10827 10825 10826 10827 10829 10831 10834 10837 10839 10840 10842 10844 10847 10850 10851 10852 10853 10854 10854 10855 10857 10859 10860 10862 10863 10865 10868 10872 10875 10877 10879 10881 10882 10883 10883 10884 10885 10886 10886 10886 10886 10887 10887 10888 10888 10888 10888 10889 10889 10890 10889 10888
10716 10718 10721 10725 10728 10730 10732 10734 10736 10737 10741 10744 10746 10748 10753 10759 10762 10764 10767 10771 10774 10777 10782 10785 10786 10789 10793 10798 10804 10807 10808 10809 10812 10816 10820 10822 10822 10823 10824 10825 10827 10827 10829 10832 10834 10836 10838 10841 10844 10845 10847 10848 10849 10850 10851 10852 10854 10856 10857 10858 10859 10861 10866 10870 10872 10874 10875 10877 10879 10880 10880 10880 10881 10883 10884 10884 10885 10885 10885 10885 10885 10885 10886 10886 10886 10886 10884 10882